Home > Weather > Drøbak > Past weeks

Flag for Norway Past Weather in Drøbak, Norway — Yesterday and Last 2 Weeks

Now
52 °F

Broken clouds.


Feels Like: 45 °F
Forecast: 53 / 63 °F
Wind: 23 mph from Southwest

Location: Statfjord B

Current Time: Jun 28, 2016 at 9:52:09 AM

Latest Report: Jun 28, 2016 at 8:50 AM


Visibility: N/A

Pressure: 29.74 "Hg

Humidity: 88%

Dew Point: 48 °F

Location of DrøbakLocation

Past Weather in Drøbak — Graph

°F

Drøbak Temperature Yesterday

Maximum temperature yesterday: 55 °F (at 7:20 PM)
Minimum temperature yesterday: 50 °F (at 3:20 AM)
Average temperature yesterday: 53 °F

High & Low Weather Summary for the Past Weeks

 TemperatureHumidityPressure
High59 °F (Jun 23, 4:20 PM)100% (Jun 20, 11:50 AM)30.09 "Hg (Jun 20, 11:50 AM)
Low46 °F (Jun 18, 12:20 PM)51% (Jun 19, 7:20 PM)29.47 "Hg (Jun 20, 3:50 PM)
Average52 °F86%29.84 "Hg
* Reported Jun 13 8:20 AM — Jun 28 8:20 AM, Drøbak, Weather by CustomWeather, © 2016

Note: Actual official high and low records may vary slightly from our data, if they occured in-between our weather recording intervals... More about our weather records

Advertising

Drøbak Weather History for the Previous 24 Hours

Scroll right to see more
 ConditionsComfort  
Time TempWeatherWind HumidityBarometerVisibility
8:20 AM
Tue, Jun 28
52 °FPartly sunny.23 mph88%29.74 "HgN/A
7:50 AM52 °FBroken clouds.21 mph94%29.74 "HgN/A
7:20 AM52 °FPassing clouds.23 mph88%29.74 "HgN/A
6:50 AM52 °FScattered clouds.22 mph88%29.74 "HgN/A
6:20 AM52 °FBroken clouds.23 mph88%29.74 "HgN/A
5:50 AM52 °FPartly sunny.24 mph88%29.74 "HgN/A
5:20 AM52 °FPassing clouds.26 mph88%29.74 "HgN/A
4:50 AM50 °FSprinkles. Passing clouds.28 mph94%29.74 "HgN/A
4:20 AM52 °FPartly cloudy.25 mph88%29.71 "HgN/A
3:50 AM52 °FPartly cloudy.25 mph82%29.71 "HgN/A
3:20 AM52 °FPassing clouds.20 mph88%29.74 "HgN/A
2:50 AM52 °FPassing clouds.23 mph88%29.74 "HgN/A
2:20 AM52 °FPassing clouds.23 mph88%29.74 "HgN/A
1:50 AM52 °FPassing clouds.22 mph88%29.74 "HgN/A
1:20 AM52 °FPassing clouds.22 mph88%29.74 "HgN/A
12:50 AM52 °FPassing clouds.23 mph82%29.74 "HgN/A
12:20 AM52 °FCool.22 mph88%29.74 "HgN/A
11:50 PM
Mon, Jun 27
52 °FPassing clouds.22 mph88%29.74 "HgN/A
11:20 PM52 °FScattered clouds.20 mph88%29.71 "HgN/A
10:50 PM52 °FScattered clouds.22 mph82%29.71 "HgN/A
10:20 PM54 °FPartly sunny.18 mph82%29.71 "HgN/A
9:50 PM52 °FScattered clouds.21 mph82%29.71 "HgN/A
9:20 PM54 °FPassing clouds.22 mph77%29.71 "HgN/A
8:50 PM54 °FPartly sunny.25 mph82%29.68 "HgN/A
8:20 PM54 °FCool.23 mph82%29.68 "HgN/A
7:50 PM54 °FScattered clouds.26 mph82%29.68 "HgN/A
7:20 PM55 °FScattered clouds.25 mph77%29.65 "HgN/A
6:50 PM54 °FScattered clouds.26 mph82%29.65 "HgN/A
6:20 PM54 °FBroken clouds.31 mph82%29.65 "HgN/A
5:50 PM54 °FPartly sunny.29 mph82%29.65 "HgN/A
5:20 PM54 °FBroken clouds.29 mph88%29.65 "HgN/A
4:50 PM54 °FPartly sunny.25 mph88%29.62 "HgN/A
4:20 PM54 °FBroken clouds.25 mph88%29.62 "HgN/A
3:50 PM54 °FPassing clouds.25 mph88%29.62 "HgN/A
3:20 PM52 °FLight rain. Partly sunny.25 mph94%29.59 "HgN/A
2:50 PM52 °FLight rain. Partly sunny.22 mph100%29.59 "HgN/A
2:20 PM52 °FLight rain. Partly sunny.21 mph100%29.59 "HgN/A
1:50 PM52 °FLight rain. Partly sunny.20 mph100%29.59 "HgN/A
1:20 PM52 °FLight rain. Partly sunny.17 mph100%29.59 "HgN/A
12:50 PM52 °FLight rain. Broken clouds.13 mph100%29.59 "HgN/A
12:20 PM52 °FLight rain. Partly sunny.15 mph100%29.59 "HgN/A
11:50 AM52 °FLight rain. Partly sunny.15 mph100%29.59 "HgN/A
11:20 AM54 °FLight rain. Partly sunny.21 mph94%29.59 "Hg3 mi
10:50 AM54 °FPartly sunny.23 mph94%29.59 "HgN/A
10:20 AM54 °FOvercast.24 mph94%29.59 "HgN/A
9:50 AM54 °FPartly sunny.22 mph94%29.59 "HgN/A
9:20 AM54 °FPartly sunny.24 mph94%29.59 "HgN/A
Weather by CustomWeather, © 2016

See weather overviewHow to use our weather pages